When you browse on this site, cookies collect data to enhance your experience and personalize the content and advertising you see.
Visit our Privacy Policy to learn more. By continuing to use the site, you agree to this use of cookies and data.
  • In Portugal
  • List of Countries
  • For 7 days
  • Water Temperature
  • Weather Map
  • Weather Widgets
  • user-avatar
    Login

    Hourly Weather Hlyut

    Today, 23 September, Monday

    Time Temperature Precipitation Wind Pressure Humidity
    00:00 +7°C° 0 mm 2 mps 658 mmHg 58%
    01:00 +7°C° 0 mm 2 mps 657 mmHg 57%
    02:00 +7°C° 0 mm 2 mps 657 mmHg 56%
    03:00 +7°C° 0 mm 2 mps 657 mmHg 56%
    04:00 +7°C° 0 mm 2 mps 657 mmHg 54%
    05:00 +7°C° 0 mm 2 mps 657 mmHg 53%
    06:00 +8°C° 0 mm 1 mps 657 mmHg 52%
    07:00 +11°C° 0 mm 1 mps 658 mmHg 50%
    08:00 +13°C° 0 mm 1 mps 658 mmHg 48%
    09:00 +15°C° 0 mm 2 mps 659 mmHg 44%
    10:00 +16°C° 0 mm 2 mps 659 mmHg 45%
    11:00 +17°C° 0 mm 2 mps 659 mmHg 45%
    12:00 +17°C° 0 mm 3 mps 659 mmHg 46%
    13:00 +17°C° 0 mm 2 mps 658 mmHg 46%
    14:00 +17°C° 0 mm 2 mps 658 mmHg 47%
    15:00 +17°C° 0 mm 2 mps 658 mmHg 48%
    16:00 +15°C° 0 mm 2 mps 657 mmHg 57%
    17:00 +13°C° 0 mm 1 mps 656 mmHg 67%
    18:00 +10°C° 0 mm 1 mps 656 mmHg 76%
    19:00 +10°C° 0 mm 1 mps 656 mmHg 71%
    20:00 +10°C° 0 mm 1 mps 657 mmHg 67%
    21:00 +10°C° 0 mm 1 mps 657 mmHg 62%
    22:00 +10°C° 0 mm 1 mps 657 mmHg 61%
    23:00 +10°C° 0 mm 1 mps 657 mmHg 61%

    Tomorrow, 24 September, Tuesday

    Time Temperature Precipitation Wind Pressure Humidity
    00:00 +9°C° 0 mm 1 mps 656 mmHg 61%
    01:00 +9°C° 0 mm 1 mps 656 mmHg 60%
    02:00 +10°C° 0 mm 1 mps 656 mmHg 59%
    03:00 +9°C° 0 mm 2 mps 656 mmHg 59%
    04:00 +9°C° 0 mm 2 mps 657 mmHg 60%
    05:00 +9°C° 0 mm 2 mps 657 mmHg 61%
    06:00 +9°C° 0 mm 2 mps 657 mmHg 62%
    07:00 +12°C° 0 mm 2 mps 658 mmHg 59%
    08:00 +14°C° 0 mm 2 mps 658 mmHg 55%
    09:00 +17°C° 0 mm 2 mps 659 mmHg 52%
    10:00 +17°C° 0 mm 2 mps 659 mmHg 51%
    11:00 +18°C° 0 mm 2 mps 659 mmHg 51%
    12:00 +19°C° 0 mm 3 mps 658 mmHg 50%
    13:00 +19°C° 0 mm 3 mps 658 mmHg 51%
    14:00 +19°C° 0 mm 3 mps 658 mmHg 52%
    15:00 +19°C° 0 mm 2 mps 658 mmHg 52%
    16:00 +17°C° 0 mm 2 mps 657 mmHg 61%
    17:00 +15°C° 0 mm 1 mps 656 mmHg 69%
    18:00 +13°C° 0 mm 1 mps 656 mmHg 77%
    19:00 +13°C° 0 mm 1 mps 656 mmHg 71%
    20:00 +12°C° 0 mm 1 mps 656 mmHg 65%
    21:00 +12°C° 0 mm 1 mps 656 mmHg 58%
    22:00 +12°C° 0 mm 1 mps 656 mmHg 59%
    23:00 +12°C° 0 mm 2 mps 656 mmHg 60%

    Day after tomorrow, 25 September, Wednesday

    Time Temperature Precipitation Wind Pressure Humidity
    00:00 +12°C° 0 mm 2 mps 655 mmHg 61%
    01:00 +12°C° 0 mm 2 mps 655 mmHg 60%
    02:00 +12°C° 0 mm 2 mps 655 mmHg 60%
    03:00 +12°C° 0 mm 2 mps 655 mmHg 60%
    04:00 +12°C° 0 mm 2 mps 655 mmHg 59%
    05:00 +12°C° 0 mm 2 mps 655 mmHg 58%
    06:00 +12°C° 0 mm 2 mps 655 mmHg 57%
    07:00 +15°C° 0 mm 2 mps 656 mmHg 52%
    08:00 +17°C° 0 mm 2 mps 657 mmHg 47%
    09:00 +19°C° 0 mm 2 mps 658 mmHg 42%
    10:00 +20°C° 0 mm 2 mps 658 mmHg 44%
    11:00 +20°C° 0 mm 3 mps 658 mmHg 46%
    12:00 +21°C° 0 mm 3 mps 658 mmHg 48%
    13:00 +21°C° 0 mm 3 mps 658 mmHg 49%
    14:00 +20°C° 0 mm 3 mps 658 mmHg 51%
    15:00 +20°C° 0 mm 3 mps 657 mmHg 52%
    16:00 +18°C° 0 mm 2 mps 657 mmHg 60%
    17:00 +16°C° 0 mm 2 mps 657 mmHg 68%
    18:00 +14°C° 0 mm 1 mps 656 mmHg 76%
    19:00 +14°C° 0 mm 1 mps 657 mmHg 75%
    20:00 +14°C° 0 mm 1 mps 657 mmHg 73%
    21:00 +13°C° 0 mm 1 mps 657 mmHg 71%
    22:00 +14°C° 0 mm 1 mps 657 mmHg 68%
    23:00 +14°C° 0 mm 1 mps 657 mmHg 65%

    26 September, Thursday

    Time Temperature Precipitation Wind Pressure Humidity
    00:00 +14°C° 0 mm 1 mps 657 mmHg 61%
    01:00 +14°C° 0 mm 1 mps 657 mmHg 62%
    02:00 +14°C° 0 mm 1 mps 657 mmHg 62%
    03:00 +13°C° 0 mm 1 mps 657 mmHg 62%
    04:00 +13°C° 0 mm 2 mps 657 mmHg 63%
    05:00 +13°C° 0 mm 2 mps 657 mmHg 63%
    06:00 +13°C° 0 mm 2 mps 657 mmHg 64%
    07:00 +16°C° 0 mm 2 mps 657 mmHg 59%
    08:00 +18°C° 0 mm 2 mps 658 mmHg 53%
    09:00 +20°C° 0 mm 2 mps 659 mmHg 48%
    10:00 +21°C° 0 mm 3 mps 659 mmHg 46%
    11:00 +22°C° 0 mm 3 mps 659 mmHg 45%
    12:00 +22°C° 0 mm 3 mps 659 mmHg 43%
    13:00 +22°C° 0 mm 3 mps 658 mmHg 43%
    14:00 +22°C° 0 mm 3 mps 658 mmHg 42%
    15:00 +22°C° 0 mm 3 mps 657 mmHg 42%
    16:00 +20°C° 0 mm 2 mps 657 mmHg 50%
    17:00 +18°C° 0 mm 2 mps 656 mmHg 57%
    18:00 +16°C° 0 mm 1 mps 656 mmHg 65%
    19:00 +16°C° 0 mm 1 mps 656 mmHg 66%
    20:00 +15°C° 0 mm 1 mps 656 mmHg 67%
    21:00 +15°C° 0 mm 1 mps 656 mmHg 68%
    22:00 +15°C° 0 mm 1 mps 656 mmHg 70%
    23:00 +14°C° 0 mm 1 mps 656 mmHg 73%

    27 September, Friday

    Time Temperature Precipitation Wind Pressure Humidity
    00:00 +14°C° 0 mm 1 mps 656 mmHg 75%
    01:00 +14°C° 0 mm 1 mps 656 mmHg 74%
    02:00 +14°C° 0 mm 1 mps 656 mmHg 73%
    03:00 +14°C° 0 mm 1 mps 656 mmHg 72%
    04:00 +14°C° 0 mm 1 mps 656 mmHg 72%
    05:00 +14°C° 0 mm 2 mps 656 mmHg 71%
    06:00 +14°C° 0 mm 2 mps 656 mmHg 71%
    07:00 +16°C° 0 mm 2 mps 657 mmHg 66%
    08:00 +18°C° 0 mm 2 mps 657 mmHg 60%
    09:00 +20°C° 0 mm 2 mps 658 mmHg 55%
    10:00 +21°C° 0 mm 2 mps 658 mmHg 54%
    11:00 +22°C° 0 mm 3 mps 658 mmHg 52%
    12:00 +22°C° 0 mm 3 mps 658 mmHg 51%
    13:00 +22°C° 0 mm 3 mps 658 mmHg 51%
    14:00 +22°C° 0 mm 3 mps 657 mmHg 51%
    15:00 +22°C° 0 mm 3 mps 657 mmHg 52%
    16:00 +20°C° 0 mm 2 mps 656 mmHg 59%
    17:00 +18°C° 0 mm 2 mps 656 mmHg 67%
    18:00 +16°C° 0 mm 1 mps 655 mmHg 74%
    19:00 +16°C° 0 mm 1 mps 656 mmHg 73%
    20:00 +16°C° 0 mm 1 mps 656 mmHg 71%
    21:00 +16°C° 0 mm 1 mps 656 mmHg 70%
    22:00 +16°C° 0 mm 1 mps 656 mmHg 72%
    23:00 +16°C° 0 mm 1 mps 656 mmHg 74%

    28 September, Saturday

    Time Temperature Precipitation Wind Pressure Humidity
    00:00 +15°C° 0 mm 2 mps 656 mmHg 75%
    01:00 +15°C° 0 mm 2 mps 655 mmHg 76%
    02:00 +15°C° 0 mm 2 mps 655 mmHg 76%
    03:00 +15°C° 0 mm 2 mps 655 mmHg 76%
    04:00 +15°C° 0 mm 1 mps 654 mmHg 75%
    05:00 +15°C° 0 mm 1 mps 654 mmHg 75%
    06:00 +14°C° 0 mm 1 mps 654 mmHg 74%
    07:00 +17°C° 0 mm 2 mps 654 mmHg 67%
    08:00 +19°C° 0 mm 2 mps 655 mmHg 61%
    09:00 +21°C° 0 mm 3 mps 655 mmHg 54%
    10:00 +21°C° 0 mm 3 mps 656 mmHg 54%
    11:00 +21°C° 0 mm 3 mps 656 mmHg 54%
    12:00 +21°C° 0 mm 4 mps 656 mmHg 55%
    13:00 +20°C° 0.2 mm 3 mps 656 mmHg 62%
    14:00 +18°C° 0.2 mm 3 mps 655 mmHg 70%
    15:00 +17°C° 0.2 mm 2 mps 655 mmHg 77%
    16:00 +16°C° 0.1 mm 2 mps 655 mmHg 80%
    17:00 +15°C° 0.1 mm 2 mps 655 mmHg 82%
    18:00 +14°C° 0.1 mm 1 mps 655 mmHg 85%
    19:00 +14°C° 0 mm 1 mps 656 mmHg 85%
    20:00 +13°C° 0 mm 1 mps 656 mmHg 86%
    21:00 +13°C° 0 mm 1 mps 656 mmHg 86%
    22:00 +12°C° 0 mm 1 mps 657 mmHg 88%
    23:00 +12°C° 0 mm 1 mps 657 mmHg 89%
    Show more